カタログに戻る

FENGYUN 1C DEB

運用中SSO
NORAD 33720·DEBRIS·🇨🇳 China

打ち上げ May 10, 1999 から Taiyuan Satellite Launch Center

Loading…

次のパス (今後24時間)

TLE

経年Source: Space-Track

元期: Sep 11, 2026, 05:22 UTC

1 33720U 99025DHH 26254.22412263  .00001117  00000-0  33930-3 0  9992
2 33720  98.2502 252.8299 0078861 324.2438  35.3486 14.42280373972827

AllMySatでFENGYUN 1C DEBをリアルタイム追跡

Download on the App Store